| time (UTC) | temp C | wind direction | speed KPH | gust KPH | rain 1hr cm | rain 24hr cm | rain mn cm | humidity % | barometer mb |
| 20260510183005 | 16 | 210 | 22.5 | 0.0 | 0.00 | 0.00 | 0.00 | 48 | 1012.0 |
| 20260510181503 | 16 | 210 | 22.5 | 0.0 | 0.00 | 0.00 | 0.00 | 48 | 1012.0 |
| 20260510180004 | 16 | 220 | 27.4 | 0.0 | 0.00 | 0.00 | 0.00 | 48 | 1012.0 |
| 20260510173004 | 16 | 200 | 19.3 | 0.0 | 0.00 | 0.00 | 0.00 | 55 | 1012.0 |
| 20260510170004 | 15 | 210 | 14.5 | 0.0 | 0.00 | 0.00 | 0.00 | 67 | 1012.0 |
| 20260510163004 | 15 | 0 | 14.5 | 0.0 | 0.00 | 0.00 | 0.00 | 67 | 1012.0 |
| 20260510161503 | 15 | 0 | 14.5 | 0.0 | 0.00 | 0.00 | 0.00 | 67 | 1012.0 |
| 20260510160004 | 13 | 230 | 1.6 | 0.0 | 0.00 | 0.00 | 0.00 | 67 | 1012.0 |
| 20260510154504 | 13 | 230 | 1.6 | 0.0 | 0.00 | 0.00 | 0.00 | 67 | 1012.0 |
| 20260510153005 | 12 | 230 | 22.5 | 0.0 | 0.00 | 0.00 | 0.00 | 71 | 1013.0 |
| 20260510151504 | 12 | 230 | 22.5 | 0.0 | 0.00 | 0.00 | 0.00 | 71 | 1013.0 |
| 20260510150004 | 12 | 230 | 22.5 | 0.0 | 0.00 | 0.00 | 0.00 | 71 | 1013.0 |
| 20260510140005 | 13 | 210 | 14.5 | 0.0 | 0.00 | 0.00 | 0.00 | 76 | 1012.0 |
| 20260510134505 | 13 | 210 | 14.5 | 0.0 | 0.00 | 0.00 | 0.00 | 76 | 1012.0 |
| 20260510133004 | 12 | 200 | 20.9 | 0.0 | 0.00 | 0.00 | 0.00 | 76 | 1013.0 |
| 20260510130004 | 12 | 240 | 25.7 | 0.0 | 0.00 | 0.00 | 0.00 | 76 | 1013.0 |
| 20260510123004 | 12 | 240 | 20.9 | 0.0 | 0.00 | 0.00 | 0.00 | 87 | 1013.0 |
| 20260510121504 | 12 | 240 | 20.9 | 0.0 | 0.00 | 0.00 | 0.00 | 87 | 1013.0 |
| 20260510114504 | 12 | 230 | 25.7 | 0.0 | 0.00 | 0.00 | 0.00 | 81 | 1013.0 |
| 20260510113004 | 12 | 250 | 25.7 | 0.0 | 0.00 | 0.00 | 0.00 | 87 | 1012.0 |
| 20260510110004 | 15 | 170 | 22.5 | 0.0 | 0.00 | 0.00 | 0.00 | 72 | 1012.0 |
| 20260510103004 | 12 | 170 | 20.9 | 0.0 | 0.00 | 0.00 | 0.00 | 87 | 1012.0 |
| 20260510100005 | 12 | 160 | 14.5 | 0.0 | 0.00 | 0.00 | 0.00 | 93 | 1013.0 |
| 20260510093005 | 12 | 160 | 1.6 | 0.0 | 0.00 | 0.00 | 0.00 | 100 | 1013.0 |
| 20260510091504 | 12 | 160 | 1.6 | 0.0 | 0.00 | 0.00 | 0.00 | 100 | 1013.0 |
| 20260510090004 | 12 | 170 | 19.3 | 0.0 | 0.00 | 0.00 | 0.00 | 93 | 1013.0 |
| 20260510084503 | 12 | 170 | 19.3 | 0.0 | 0.00 | 0.00 | 0.00 | 93 | 1013.0 |
| 20260510083005 | 12 | 170 | 12.9 | 0.0 | 0.00 | 0.00 | 0.00 | 87 | 1013.0 |
| 20260510081503 | 12 | 170 | 12.9 | 0.0 | 0.00 | 0.00 | 0.00 | 87 | 1013.0 |
| 20260510074504 | 11 | 0 | 3.2 | 0.0 | 0.00 | 0.00 | 0.00 | 100 | 1013.0 |
| 20260510073004 | 10 | 0 | 1.6 | 0.0 | 0.00 | 0.00 | 0.00 | 100 | 1013.0 |
| 20260510060004 | 8 | 150 | 1.6 | 0.0 | 0.00 | 0.00 | 0.00 | 100 | 1012.0 |
| 20260510053004 | 8 | 0 | 3.2 | 0.0 | 0.00 | 0.00 | 0.00 | 100 | 1012.0 |
| 20260510050005 | 8 | 130 | 8.0 | 0.0 | 0.00 | 0.00 | 0.00 | 100 | 1012.0 |
| 20260510041504 | 8 | 120 | 8.0 | 0.0 | 0.00 | 0.00 | 0.00 | 100 | 1013.0 |
| 20260510040005 | 8 | 130 | 4.8 | 0.0 | 0.00 | 0.00 | 0.00 | 100 | 1013.0 |
| 20260510034504 | 8 | 130 | 4.8 | 0.0 | 0.00 | 0.00 | 0.00 | 100 | 1013.0 |
| 20260510031504 | 10 | 140 | 8.0 | 0.0 | 0.00 | 0.00 | 0.00 | 100 | 1013.0 |
| 20260510023004 | 10 | 140 | 8.0 | 0.0 | 0.00 | 0.00 | 0.00 | 100 | 1013.0 |
| 20260510020005 | 11 | 150 | 9.7 | 0.0 | 0.00 | 0.00 | 0.00 | 100 | 1013.0 |
| 20260510013004 | 11 | 180 | 9.7 | 0.0 | 0.00 | 0.00 | 0.00 | 93 | 1013.0 |
| 20260510004504 | 11 | 160 | 4.8 | 0.0 | 0.00 | 0.00 | 0.00 | 100 | 1013.0 |
| 20260510001504 | 11 | 180 | 8.0 | 0.0 | 0.00 | 0.00 | 0.00 | 100 | 1013.0 |
| 20260510000004 | 11 | 190 | 12.9 | 0.0 | 0.00 | 0.00 | 0.00 | 100 | 1014.0 |
| 20260509234503 | 11 | 190 | 12.9 | 0.0 | 0.00 | 0.00 | 0.00 | 100 | 1014.0 |
| 20260509233004 | 11 | 170 | 9.7 | 0.0 | 0.00 | 0.00 | 0.00 | 100 | 1014.0 |
| 20260509231504 | 11 | 170 | 9.7 | 0.0 | 0.00 | 0.00 | 0.00 | 100 | 1014.0 |
| 20260509223005 | 11 | 250 | 12.9 | 0.0 | 0.00 | 0.00 | 0.00 | 93 | 1012.0 |
| 20260509221504 | 11 | 250 | 12.9 | 0.0 | 0.00 | 0.00 | 0.00 | 93 | 1012.0 |
| 20260509220007 | 11 | 250 | 19.3 | 0.0 | 0.00 | 0.00 | 0.00 | 100 | 1012.0 |
| 20260509213004 | 11 | 250 | 20.9 | 0.0 | 0.00 | 0.00 | 0.00 | 100 | 1012.0 |
| 20260509210004 | 13 | 170 | 19.3 | 0.0 | 0.00 | 0.00 | 0.00 | 71 | 1011.0 |
| 20260509203004 | 13 | 160 | 19.3 | 0.0 | 0.00 | 0.00 | 0.00 | 76 | 1010.0 |
| 20260509190004 | 15 | 140 | 12.9 | 0.0 | 0.00 | 0.00 | 0.00 | 82 | 1010.0 |